Regional Weather Roundup
Issued by NWS Sioux Falls, SD

Home | Current Version | Previous Version | Graphics & Text | Print | Product List | Glossary Off
Versions: 1 2 3 4 5 6 7 8 9 10 11 12 13 14 15 16 17 18 19 20 21 22 23 24 25 26 27 28 29 30 31 32 33 34 35 36 37 38 39 40 41 42 43 44 45 46 47 48 49 50

000
ASUS43 KFSD 042002
RWRFSD

WEATHER ROUNDUP FOR SE SOUTH DAKOTA/SW MINNESOTA/NW IOWA
NATIONAL WEATHER SERVICE SIOUX FALLS SD
300 PM CDT TUE AUG 04 2015

NOTE: "FAIR" INDICATES FEW OR NO CLOUDS BELOW 12,000 FEET WITH NO
SIGNIFICANT WEATHER AND OR OBSTRUCTIONS TO VISIBILITY.


SDZ038>040-050-052>070-042100-
SOUTHEAST SOUTH DAKOTA

CITY           SKY/WX    TMP DP  RH WIND       PRES   REMARKS
BROOKINGS      PTSUNNY   77  61  57 SE5       30.02S
CHAMBERLAIN    PTSUNNY   77  64  63 SE10      29.97S
HURON          CLOUDY    80  62  54 SE6       29.97R
MADISON        FAIR      75  64  69 SE6       30.01S
MITCHELL       PTSUNNY   79  65  62 SE10      29.98R
SIOUX FALLS    CLOUDY    76  62  62 SE5       29.99F
WINNER         FAIR      83  62  49 SE12      29.96S
YANKTON        PTSUNNY   77  64  65 E12       29.96S
$$

MNZ071-072-080-081-089-090-097-098-042100-
SOUTHWEST MINNESOTA

CITY           SKY/WX    TMP DP  RH WIND       PRES   REMARKS
FAIRMONT       PTSUNNY   77  46  33 SE8       30.00F
JACKSON        PTSUNNY   77  54  44 SE6       30.02S
LUVERNE        PTSUNNY   77  61  57 SE6       30.01S
MARSHALL       PTSUNNY   79  54  41 SW6       30.02S
MONTEVIDEO     MOSUNNY   82  54  36 NE5       30.02R
PIPESTONE      PTSUNNY   77  59  53 SE3       30.02R
REDWOOD FALLS  MOSUNNY   80  46  30 S3        29.99S
WINDOM         PTSUNNY   79  48  34 CALM      30.02R
WORTHINGTON    PTSUNNY   73  57  56 SE7       30.01F
$$

IAZ001>003-012>014-020>022-031-032-NEZ013-014-SDZ071-042100-
NORTHWEST IOWA

CITY           SKY/WX    TMP DP  RH WIND       PRES   REMARKS
DENISON        CLOUDY    75  63  64 SE12G17   29.95R
ESTHERVILLE    PTSUNNY   76  56  49 SE8       30.00F
SIOUX CITY     PTSUNNY   77  62  59 SE9       29.97R
SPENCER        CLOUDY    78  58  49 E10       29.99F
STORM LAKE     PTSUNNY   75  64  69 E10       29.99R
$$

ABBREVIATIONS USED IN REMARKS
   TC - TEMPERATURE IN CELSIUS
  WCI - WIND CHILL INDEX
   HX - HEAT INDEX
  VSB - VISIBILITY



USA.gov is the U.S. government's official web portal to all federal, state and local government web resources and services.